[[{"header":{"parameterUnit":"m.s-1","parameterCategory":1,"la1":30.2991,"la2":30.254,"lo1":-89.0895,"lo2":-89.0444,"dy":0.0017,"dx":0.0017,"nx":28,"ny":28,"refTime":"2024-02-03T09:00:00:Z","depth":0,"parameterNumber":2,"parameterNumberName":"U-component_of_WINDS"},"data":[0,0,0,0,0,0,0,0,0,0,0,0,0,0,0,0,0,0,0,0,0,0,0,0,0,0,0,0,0,0,0,0,0,0,0,0,0,0,0,0,0,0,0,0,0,0,0,0,0,0,0,0,0,0,0,0,0,0,-2.8736,-2.8736,0,-2.8735,-2.8735,-2.8735,-2.8601,-2.8598,-2.8594,-2.8591,-2.8594,-2.8597,-2.8601,0,0,0,0,0,0,0,0,0,0,0,0,0,-2.8626,-2.8629,-2.8736,-2.8736,-2.8736,-2.8735,-2.8735,-2.8735,-2.8602,-2.8598,-2.8594,-2.859,-2.8593,-2.8597,-2.8601,0,0,0,0,0,0,0,0,0,0,0,0,0,-2.8655,-2.863,-2.8736,-2.8669,-2.8663,-2.8735,-2.8735,-2.8735,-2.8603,-2.8598,-2.8592,-2.8587,-2.8592,-2.8596,-2.8601,-2.8737,0,0,-2.8617,-2.8619,0,0,0,0,0,0,0,0,-2.8653,-2.8659,-2.8679,-2.8674,-2.8667,-2.8663,-2.8697,-2.8736,-2.8604,-2.8626,-2.8591,-2.8585,-2.8621,-2.8624,-2.8635,-2.8738,-2.8738,-2.8617,-2.862,-2.8622,-2.8624,0,0,0,0,0,0,0,-2.8651,-2.8658,-2.8735,-2.8679,-2.8672,-2.8641,-2.8639,-2.8704,-2.8653,-2.8624,-2.8614,-2.8615,-2.8617,-2.8631,-2.8634,-2.8738,-2.8617,-2.8621,-2.8625,-2.8627,-2.8953,-2.8959,0,0,0,0,0,0,-2.8658,-2.8657,-2.8735,-2.8735,-2.8647,-2.8647,-2.8645,-2.867,-2.8652,-2.8644,-2.862,-2.8609,-2.8625,-2.8628,-2.8634,-2.8793,-2.8622,-2.8627,-2.863,-2.8948,-2.8955,-2.8961,0,0,0,0,0,0,-2.8656,-2.8666,-2.8735,-2.8694,-2.87,-2.8654,-2.8683,-2.8672,-2.8685,-2.8649,-2.864,-2.8643,-2.8621,-2.8627,-2.8713,-2.8791,-2.8629,-2.8634,-2.8941,-2.895,-2.8958,-2.9113,0,0,0,0,0,0,-2.8653,-2.8666,-2.8717,-2.8696,-2.8703,-2.8814,-2.8688,-2.8676,-2.8694,-2.868,-2.8668,-2.8661,-2.8617,-2.8706,-2.8718,-2.8795,-2.8638,-2.8934,-2.8945,-2.8955,-2.91,-2.9125,-2.9147,0,0,0,0,0,-2.865,-2.8761,-2.872,-2.873,-2.8765,-2.8818,-2.8823,-2.8768,-2.8701,-2.8752,-2.8729,-2.8662,-2.8781,-2.8716,-2.8728,-2.8808,-2.8929,-2.8942,-2.8954,-2.909,-2.912,-2.9146,0,0,0,0,0,0,-2.8793,-2.8757,-2.8711,-2.8818,-2.8822,-2.8796,-2.8858,-2.8802,-2.8827,-2.8813,-2.8745,-2.8744,-2.8841,-2.8833,-2.8762,-2.894,-2.8843,-2.8859,-2.8942,-2.8971,-2.8993,-2.8994,-2.8642,0,0,0,0,0,-2.8837,-2.8883,-2.8849,-2.8947,-2.8951,-2.8905,-2.8926,-2.8884,-2.8886,-2.8888,-2.887,-2.8876,-2.8915,-2.8942,-2.8975,-2.9098,-2.9094,-2.9159,-2.9182,-2.9202,-2.9217,-2.9283,-2.9312,-2.9003,-2.9003,-2.9002,0,0,-2.8929,-2.8914,-2.8948,-2.8975,-2.8973,-2.9024,-2.8907,-2.8965,-2.9002,-2.8897,-2.8977,-2.8965,-2.8967,-2.9072,-2.9118,-2.9069,-2.9301,-2.9218,-2.9234,-2.9238,-2.9299,-2.9328,-2.9354,-2.9011,-2.901,-2.9008,0,0,-2.9121,-2.9115,-2.9196,-2.9196,-2.9195,-2.9163,-2.9183,-2.9165,-2.9153,-2.9232,-2.9155,-2.9198,-2.9266,-2.9271,-2.9282,-2.9478,-2.9418,-2.949,-2.9613,-2.9678,-2.9702,-2.9723,-2.9795,-2.9821,-2.9505,-2.9506,-2.9506,0,-2.9236,-2.9307,-2.9245,-2.9308,-2.9324,-2.9229,-2.9312,-2.9316,-2.9326,-2.934,-2.9283,-2.9367,-2.9361,-2.9468,-2.9515,-2.9527,-2.9549,-2.9492,-2.9703,-2.9724,-2.9743,-2.981,-2.9837,-2.9514,-2.9513,-2.9513,-2.9512,0,-2.9449,-2.95,-2.9566,-2.9577,-2.96,-2.9673,-2.9623,-2.9653,-2.9609,-2.9584,-2.9667,-2.9657,-2.9687,-2.9709,-2.9667,-2.981,-2.9779,-2.9715,-2.9616,-2.9783,-2.9845,-2.987,-2.9527,-2.9524,-2.9521,-2.9519,0,0,-2.9733,-2.9709,-2.9734,-2.9739,-2.973,-2.9769,-2.9838,-2.9867,-2.9895,-2.9905,-2.9963,-3.0023,-2.9962,-2.9976,-2.9933,-2.999,-3.0148,-2.9918,-2.9917,-2.9963,-3.0307,-3.0357,-3.0388,-3.0107,-3.0112,-3.0115,-3.0307,0,-2.9921,-3.0037,-2.9983,-3.0105,-3.0153,-3.0064,-3.0124,-3.0126,-3.0105,-3.0143,-3.0119,-3.0163,-3.008,-3.0087,-3.0139,-3.0118,-3.0216,-3.0103,-3.0162,-3.0165,-3.0166,-3.042,-3.0473,-3.0655,-3.0331,-3.0335,-3.0338,0,-3.0156,-3.0175,-3.0303,-3.0286,-3.0304,-3.0359,-3.0382,-3.0418,-3.042,-3.04,-3.0416,-3.036,-3.0428,-3.0329,-3.0423,-3.0348,-3.0368,-3.0362,-3.0367,-3.0372,-3.0263,-3.0434,-3.0711,-3.0739,-3.0376,-3.0373,-3.037,0,-3.0353,-3.041,-3.0494,-3.0501,-3.0483,-3.0525,-3.052,-3.0515,-3.0536,-3.0556,-3.057,-3.0598,-3.0614,-3.0638,-3.0592,-3.0524,-3.0694,-3.059,-3.0681,-3.0683,-3.0722,-3.0721,-3.1009,-3.0733,-3.0733,-3.0732,-3.0732,0,-3.0569,-3.0651,-3.0582,-3.0634,-3.0724,-3.0661,-3.0752,-3.0737,-3.0735,-3.0783,-3.0708,-3.0755,-3.0691,-3.0733,-3.0698,-3.0782,-3.079,-3.0777,-3.0767,-3.0785,-3.0787,-3.0799,-3.0786,-3.074,-3.0738,-3.0737,-3.0735,0,-3.0805,-3.0762,-3.0847,-3.0824,-3.082,-3.0887,-3.0868,-3.0915,-3.0888,-3.0951,-3.0962,-3.0921,-3.0966,-3.0922,-3.0965,-3.0941,-3.1055,-3.1026,-3.1055,-3.1047,-3.1141,-3.1134,-3.1448,-3.1487,-3.1186,-3.1189,-3.1191,0,-3.0946,-3.1007,-3.099,-3.1017,-3.1016,-3.106,-3.1081,-3.1022,-3.1047,-3.1054,-3.1101,-3.114,-3.1168,-3.1245,-3.1219,-3.1252,-3.1224,-3.1332,-3.1229,-3.1245,-3.1228,-3.1226,-3.1232,-3.1354,-3.1358,-3.1361,-3.1363,0,-3.1204,-3.1179,-3.1211,-3.1237,-3.1264,-3.1282,-3.1294,-3.132,-3.126,-3.1292,-3.1337,-3.1359,-3.1402,-3.1442,-3.1467,-3.1463,-3.1405,-3.1396,-3.1419,-3.1438,-3.1453,-3.1448,-3.1114,-3.1389,-3.1386,-3.1384,-3.1383,-3.1382,-3.1397,-3.1448,-3.1444,-3.1483,-3.1485,-3.1498,-3.1542,-3.1521,-3.1557,-3.1587,-3.155,-3.1606,-3.1607,-3.1634,-3.1637,-3.1681,-3.1636,-3.1669,-3.1677,-3.1687,-3.1701,-3.1445,-3.1685,-3.1684,-3.1684,-3.1683,-3.1682,0,-3.1652,-3.1645,-3.1681,-3.17,-3.1731,-3.1671,-3.1681,-3.1712,-3.1761,-3.1766,-3.1795,-3.1848,-3.1886,-3.1864,-3.1897,-3.1937,-3.1911,-3.1948,-3.1945,-3.1946,-3.1739,-3.1717,-3.1968,-3.1968,-3.1968,-3.1968,-3.1968,-3.1968,-3.1788,-3.187,-3.1846,-3.1929,-3.1922,-3.1975,-3.1986,-3.1998,-3.2002,-3.2064,-3.2095,-3.2079,-3.2074,-3.2107,-3.214,-3.2132,-3.2149,-3.2197,-3.218,-3.1988,-3.196,-3.1933,-3.1912,-3.22,-3.2201,-3.2383,-3.2384,-3.2386]},{"header":{"parameterUnit":"m.s-1","parameterCategory":1,"la1":30.2991,"la2":30.254,"lo1":-89.0895,"lo2":-89.0444,"dy":0.0017,"dx":0.0017,"nx":28,"ny":28,"refTime":"2024-02-03T09:00:00:Z","depth":0,"parameterNumber":3,"parameterNumberName":"V-component_of_WINDS"},"data":[0,0,0,0,0,0,0,0,0,0,0,0,0,0,0,0,0,0,0,0,0,0,0,0,0,0,0,0,0,0,0,0,0,0,0,0,0,0,0,0,0,0,0,0,0,0,0,0,0,0,0,0,0,0,0,0,0,0,-1.9577,-1.9576,0,-1.9539,-1.9539,-1.9538,-1.949,-1.9489,-1.9488,-1.9487,-1.945,-1.9449,-1.9449,0,0,0,0,0,0,0,0,0,0,0,0,0,-1.9606,-1.9606,-1.9577,-1.9576,-1.9576,-1.9539,-1.9539,-1.9538,-1.949,-1.9489,-1.9488,-1.9487,-1.945,-1.9449,-1.9449,0,0,0,0,0,0,0,0,0,0,0,0,0,-1.9584,-1.9606,-1.9577,-1.9547,-1.9544,-1.9539,-1.9539,-1.9538,-1.949,-1.9489,-1.9488,-1.9486,-1.945,-1.9449,-1.9449,-1.9471,0,0,-1.9448,-1.9448,0,0,0,0,0,0,0,0,-1.9585,-1.9583,-1.9552,-1.9549,-1.9546,-1.9518,-1.9535,-1.9516,-1.949,-1.9511,-1.9487,-1.9486,-1.9473,-1.9471,-1.9467,-1.9469,-1.9467,-1.9448,-1.9448,-1.9447,-1.9447,0,0,0,0,0,0,0,-1.9587,-1.9584,-1.9562,-1.9552,-1.9548,-1.9536,-1.9531,-1.9531,-1.9499,-1.9509,-1.9505,-1.9501,-1.9471,-1.9467,-1.9465,-1.9467,-1.9448,-1.9448,-1.9447,-1.9447,-1.9484,-1.9485,0,0,0,0,0,0,-1.9593,-1.9586,-1.9563,-1.9561,-1.9563,-1.9536,-1.9531,-1.9528,-1.9499,-1.9493,-1.9502,-1.9499,-1.9468,-1.9466,-1.9464,-1.9486,-1.9447,-1.9447,-1.9447,-1.9483,-1.9484,-1.9485,0,0,0,0,0,0,-1.9593,-1.9591,-1.9565,-1.9572,-1.9568,-1.9537,-1.9534,-1.9528,-1.9523,-1.9494,-1.9488,-1.9504,-1.9467,-1.9464,-1.9469,-1.9485,-1.9447,-1.9447,-1.9481,-1.9483,-1.9485,-1.9533,0,0,0,0,0,0,-1.9595,-1.9592,-1.96,-1.9573,-1.9568,-1.9571,-1.9535,-1.9528,-1.9523,-1.9518,-1.9494,-1.9489,-1.9466,-1.947,-1.9469,-1.9483,-1.9446,-1.948,-1.9482,-1.9484,-1.953,-1.9536,-1.9541,0,0,0,0,0,-1.9596,-1.9615,-1.96,-1.9598,-1.9577,-1.9572,-1.9569,-1.9542,-1.9524,-1.9532,-1.9513,-1.949,-1.9483,-1.9471,-1.9469,-1.9484,-1.9479,-1.9481,-1.9484,-1.9527,-1.9535,-1.9541,0,0,0,0,0,0,-1.9645,-1.9611,-1.9594,-1.9605,-1.9592,-1.9563,-1.9572,-1.9551,-1.9543,-1.9539,-1.9506,-1.9501,-1.951,-1.9497,-1.9484,-1.9503,-1.9477,-1.948,-1.9511,-1.9518,-1.9523,-1.9526,-1.9446,0,0,0,0,0,-1.9657,-1.9655,-1.9626,-1.9638,-1.9632,-1.9604,-1.96,-1.9581,-1.9566,-1.956,-1.9541,-1.9527,-1.9522,-1.9519,-1.9513,-1.9527,-1.9521,-1.9537,-1.9543,-1.9548,-1.955,-1.9556,-1.9563,-1.9494,-1.9494,-1.9494,0,0,-1.9682,-1.9663,-1.9664,-1.9648,-1.9635,-1.9634,-1.9599,-1.96,-1.9599,-1.956,-1.9563,-1.9549,-1.9531,-1.9541,-1.9544,-1.9531,-1.9567,-1.9551,-1.9555,-1.9555,-1.956,-1.9566,-1.9572,-1.9496,-1.9496,-1.9496,0,0,-1.9727,-1.9713,-1.9721,-1.9709,-1.969,-1.967,-1.9673,-1.9647,-1.9636,-1.9639,-1.9609,-1.9607,-1.9599,-1.9587,-1.9581,-1.962,-1.9598,-1.9619,-1.965,-1.9656,-1.9662,-1.9666,-1.968,-1.9685,-1.9622,-1.9622,-1.9622,0,-1.9761,-1.9758,-1.9729,-1.9731,-1.9724,-1.9688,-1.9697,-1.9686,-1.9666,-1.9662,-1.9647,-1.9636,-1.9621,-1.9627,-1.9637,-1.9633,-1.9634,-1.9622,-1.9663,-1.9667,-1.9671,-1.9684,-1.9689,-1.9625,-1.9624,-1.9624,-1.9624,0,-1.98,-1.9798,-1.9808,-1.9788,-1.9783,-1.9788,-1.976,-1.9757,-1.9738,-1.9721,-1.9723,-1.9704,-1.9693,-1.9693,-1.9675,-1.9697,-1.9689,-1.9669,-1.9643,-1.9681,-1.9692,-1.9697,-1.9628,-1.9627,-1.9627,-1.9626,0,0,-1.9875,-1.9839,-1.9843,-1.9833,-1.9809,-1.9808,-1.9811,-1.98,-1.9798,-1.9785,-1.9787,-1.9781,-1.9762,-1.9754,-1.9734,-1.974,-1.9772,-1.9719,-1.9718,-1.9729,-1.9794,-1.9808,-1.9814,-1.9757,-1.9758,-1.9758,-1.9795,0,-1.9915,-1.9919,-1.9892,-1.9903,-1.9901,-1.9867,-1.987,-1.9855,-1.9838,-1.9834,-1.9816,-1.9811,-1.9787,-1.9782,-1.9786,-1.9767,-1.9784,-1.9764,-1.9758,-1.9758,-1.9763,-1.982,-1.9836,-1.9872,-1.9799,-1.98,-1.98,0,-1.9963,-1.9952,-1.9962,-1.9937,-1.9935,-1.9938,-1.9925,-1.9921,-1.9904,-1.9891,-1.9882,-1.9859,-1.986,-1.9836,-1.9837,-1.9824,-1.9819,-1.981,-1.981,-1.9808,-1.9781,-1.982,-1.9882,-1.9888,-1.9807,-1.9807,-1.9806,0,-2.0016,-2.0004,-2.0008,-2.0001,-1.9972,-1.9975,-1.9963,-1.9944,-1.9939,-1.9927,-1.9923,-1.9913,-1.9907,-1.9899,-1.9873,-1.9858,-1.9877,-1.985,-1.9866,-1.9867,-1.9872,-1.9872,-1.9935,-1.987,-1.987,-1.987,-1.987,0,-2.0063,-2.0071,-2.0032,-2.0035,-2.0042,-2.0011,-2.0019,-2.0004,-1.9988,-1.9986,-1.9956,-1.9956,-1.9922,-1.9918,-1.9898,-1.9902,-1.9899,-1.9889,-1.9883,-1.9891,-1.9893,-1.9888,-1.9885,-1.9871,-1.9871,-1.9871,-1.9871,0,-2.0124,-2.0098,-2.0101,-2.0072,-2.0065,-2.0072,-2.0048,-2.0049,-2.003,-2.0029,-2.0027,-1.9998,-1.9991,-1.9965,-1.9952,-1.9938,-1.9948,-1.9938,-1.9954,-1.9951,-1.9968,-1.9967,-2.003,-2.0036,-1.9968,-1.9969,-1.9969,0,-2.0156,-2.0161,-2.0133,-2.013,-2.0119,-2.0115,-2.0109,-2.0079,-2.0074,-2.0054,-2.0057,-2.0048,-2.0039,-2.0031,-2.0008,-1.9998,-1.9987,-2.0009,-1.9985,-1.9993,-1.9986,-1.9986,-1.9986,-2.0015,-2.0016,-2.0016,-2.0017,0,-2.0215,-2.0202,-2.0194,-2.0182,-2.0176,-2.0165,-2.0153,-2.0152,-2.0118,-2.0114,-2.0107,-2.01,-2.0087,-2.0078,-2.0064,-2.0051,-2.0029,-2.0025,-2.0028,-2.0036,-2.0045,-2.004,-1.9968,-2.0023,-2.0023,-2.0022,-2.0022,-2.0022,-2.0262,-2.0264,-2.0245,-2.0237,-2.0225,-2.0213,-2.0213,-2.0194,-2.0187,-2.0174,-2.0156,-2.0151,-2.0133,-2.0111,-2.0101,-2.0096,-2.0083,-2.0088,-2.0089,-2.0091,-2.0094,-2.0046,-2.0093,-2.0093,-2.0093,-2.0093,-2.0092,0,-2.0319,-2.0304,-2.0298,-2.0281,-2.0275,-2.0254,-2.0239,-2.0235,-2.0231,-2.0216,-2.0207,-2.0199,-2.019,-2.0166,-2.0155,-2.0156,-2.0145,-2.0154,-2.0153,-2.0151,-2.0107,-2.0105,-2.0163,-2.0163,-2.0163,-2.0163,-2.0163,-2.0163,-2.0348,-2.0351,-2.0335,-2.0331,-2.0317,-2.0311,-2.0304,-2.0294,-2.0281,-2.0273,-2.0265,-2.025,-2.0231,-2.0218,-2.0209,-2.0202,-2.0199,-2.0211,-2.0201,-2.0161,-2.0154,-2.0147,-2.0146,-2.0211,-2.0211,-2.0246,-2.0246,-2.0246]}]]